Location: Calvatone
(45.1167°N, 10.4333°E)
Time: 16:08:31
(UTC+00:00)

BlueWalker 3 - Pass Details

Date: 11 June 2023
Orbit: 491 x 508 km, 53.2° (Epoch: 28 September)

Event Time Altitude Azimuth Distance (km) Brightness Sun altitude
Rises 21:46:26 0° 300° (WNW) 2,582 6.4 -18.6°
Reaches altitude 10° 21:48:40 10° 294° (WNW) 1,700 5.2 -18.8°
Maximum altitude 21:52:21 46° 220° (SW) 675 2.3 -19.0°
Enters shadow 21:52:37 46° 207° (SSW) 684 2.3 -19.0°
